User: anonymous   Login
Location: Caltech
(34.1382°N, 118.1253°W)
Time: 15:06:30
(UTC-07:00)
Language:

NOAA 19 - Orbit

View from above orbital plane
View from above orbital plane
View from above satellite
View from above satellite

Ground track
Ground track

The orbit data is extracted from the following two-line orbital elements,

1 33591U 09005A   17230.54693558  .00000114  00000-0  86887-4 0  9990
2 33591  99.0983 198.2768 0015060  96.1905 264.0982 14.12203089439461
Epoch (UTC): 18 August 2017 13:07:35
Eccentricity: 0.0015060
inclination: 99.0983°
perigee height: 841 km
apogee height: 863 km
right ascension of ascending node: 198.2768°
argument of perigee: 96.1905°
revolutions per day: 14.12203089
mean anomaly at epoch: 264.0982°
orbit number at epoch: 43946

The dashed part of the orbit path shows where the satellite is in the earth's shadow,  

DLR